軌道要素
Epoch 2019 Nov. 13.0 TT = JDT 2458800.5
T 2019 Nov. 29.72375 TT Rudenko
q 1.3005072 (2000.0) P Q
n 0.17180970 Peri. 235.53089 -0.95954087 +0.16228555
a 3.2045786 Node 312.59851 -0.00157693 -0.82027985
e 0.5941722 Incl. 18.21499 -0.28156497 -0.54845634
P 5.74
From 239 observations 2008 Jan. 13-2020 Aug. 15, mean residual 1".0.
|